Powrót do katalogu

STARLINK-31576

AktywnyŁącznośćVLEO
NORAD 59208·PAYLOAD·🇺🇸 United States

Wystrzelony Mar 11, 2024 z Vandenberg Space Force Base

Loading…

Następne Przeloty (najbliższe 24 godziny)

TLE

ŚwieżeSource: CelesTrak SupGP

Epoka: Sep 14, 2026, 22:46 UTC

1 59208C 24046H   26257.94909722 -.00006000  00000+0 -17730-3 0  2579
2 59208  53.1605 351.9690 0001127  88.3084  11.6366 15.34387795    17

Śledź STARLINK-31576 w czasie rzeczywistym z AllMySat

Download on the App Store